Location: Colorado National Monument
(39.1030°N, 108.7297°W)
Time: 12:19:48
(UTC-07:00)

N. Korean satellite - Visible Passes

Search period start: 20 February 2019 00:00
Search period end: 02 March 2019 00:00
Orbit: 456 x 510 km, 97.2° (Epoch: 20 February)

Date Brightness Start Highest point End Pass type
(mag) Time Alt. Az. Time Alt. Az. Time Alt. Az.
20 Feb 10.0 05:31:10 10° ENE 05:32:58 14° E 05:34:45 10° SE visible
21 Feb 10.3 18:48:06 10° WSW 18:49:44 13° W 18:51:22 10° WNW visible
22 Feb 7.4 06:13:42 10° NNE 06:17:05 53° E 06:20:25 10° S visible
22 Feb 9.4 18:21:47 10° SSW 18:24:51 25° W 18:27:54 10° NW visible
23 Feb 9.1 05:49:24 10° NE 05:52:15 24° E 05:55:05 10° SSE visible
24 Feb 10.2 05:26:07 10° ENE 05:27:20 12° E 05:28:34 10° ESE visible
25 Feb 10.2 18:42:06 10° SW 18:44:08 14° W 18:46:10 10° WNW visible
26 Feb 7.8 06:08:10 10° NNE 06:11:28 44° E 06:14:45 10° S visible
27 Feb 9.5 05:43:59 10° NE 05:46:37 20° E 05:49:15 10° SE visible
01 Mar 10.1 18:36:09 10° SW 18:38:30 16° W 18:40:49 10° NW visible
